Date String (YYYY-MM-DD hh:mm:ss) UTC,Instrument flags,absolute air pressure of the measurement (hPa),sample flow rate (lpm),inlet stack bypass flow (lpm),air temperature of the measurement (°C),ambient temperature measured by the external sensor (°C),aerosol sample conditioner tube jacket temperature (°C),OPC LED temperature (°C),internal box temperature (°C),relative humidity of the measurement (%),span deviation,mass concentration of particles derived from Lorenz-Mie calculation of OPC scattering (μg/m³),mass concentration of particles derived from Lorenz-Mie calculation of OPC scattering (μg/m³),mass concentration of particles derived from Lorenz-Mie calculation of OPC scattering (μg/m³)
DateTimeUTC,F1_M11,P_M11,Q1_M11,Q2_M11,T1_M11,T2_M11,T3_M11,T4_M11,T5_M11,U1_M11,ZSPAN_M11,X2_M11,X0_M11,X1_M11
2023-07-21 00:00:00,SystemResetWarning,0837.0,5.01,000.00,033.2,027.7,000.0,041.4,032.3,35.4,-000.8,0006.22,0009.87,0005.59
2023-07-21 00:01:00,SystemResetWarning,0837.0,5.01,000.00,033.4,027.9,000.0,041.4,032.4,35.2,-000.6,0006.12,0009.72,0005.51
2023-07-21 00:02:00,SystemResetWarning,0837.2,5.00,000.00,033.6,028.1,000.0,041.3,032.6,34.8,-000.3,0006.04,0009.62,0005.46
2023-07-21 00:03:00,SystemResetWarning,0837.2,4.98,000.00,033.7,028.3,000.0,041.3,032.7,34.5,-000.3,0005.99,0009.56,0005.42
2023-07-21 00:04:00,SystemResetWarning,0837.2,5.01,000.00,033.8,028.5,000.0,041.3,032.7,34.1,-000.6,0005.93,0009.46,0005.38
2023-07-21 00:05:00,SystemResetWarning,0837.2,5.01,000.00,033.8,028.4,000.0,041.3,032.7,34.2,-001.0,0005.88,0009.34,0005.34
2023-07-21 00:06:00,SystemResetWarning,0837.2,4.99,000.00,033.9,027.0,000.0,041.2,032.5,34.5,-001.1,0005.83,0009.46,0005.31
2023-07-21 00:07:00,SystemResetWarning,0837.2,5.01,000.00,033.8,026.1,000.0,041.1,032.3,34.9,-000.7,0005.80,0010.74,0005.31
2023-07-21 00:08:00,SystemResetWarning,0837.2,5.00,000.00,033.7,026.1,000.0,041.1,032.1,35.3,-000.4,0005.80,0010.80,0005.32
2023-07-21 00:09:00,SystemResetWarning,0837.2,5.01,000.00,033.6,026.4,000.0,041.1,032.1,35.6,-000.6,0005.76,0010.67,0005.33
2023-07-21 00:10:00,SystemResetWarning,0837.2,4.98,000.00,033.8,026.8,000.0,041.2,032.3,35.2,-000.7,0005.72,0010.45,0005.33
2023-07-21 00:11:00,SystemResetWarning,0837.4,5.02,000.00,034.0,027.1,000.0,041.2,032.5,34.5,-000.6,0005.76,0010.55,0005.36
2023-07-21 00:12:00,SystemResetWarning,0837.5,4.98,000.00,034.1,027.5,000.0,041.2,032.5,33.9,-000.4,0005.80,0010.65,0005.38
2023-07-21 00:13:00,SystemResetWarning,0837.5,5.01,000.00,034.2,027.8,000.0,041.3,032.6,33.7,-000.7,0005.81,0010.66,0005.39
2023-07-21 00:14:00,SystemResetWarning,0837.6,5.01,000.00,034.2,028.0,000.0,041.4,032.6,33.6,-000.7,0005.80,0010.65,0005.37
2023-07-21 00:15:00,SystemResetWarning,0837.6,5.00,000.00,034.2,028.2,000.0,041.4,032.6,33.6,-000.7,0005.73,0010.91,0005.31
2023-07-21 00:16:00,SystemResetWarning,0837.6,5.00,000.00,034.1,028.4,000.0,041.5,032.6,33.7,-000.5,0005.67,0010.94,0005.24
2023-07-21 00:17:00,SystemResetWarning,0837.6,4.98,000.00,034.1,028.1,000.0,041.5,032.6,33.8,-000.5,0005.62,0010.77,0005.17
2023-07-21 00:18:00,SystemResetWarning,0837.6,5.00,000.00,034.1,026.4,000.0,041.4,032.4,33.9,0000.0,0005.56,0009.29,0005.12
2023-07-21 00:19:00,SystemResetWarning,0837.5,5.00,000.00,034.0,025.4,000.0,041.2,032.2,34.1,-000.3,0005.51,0009.54,0005.08
2023-07-21 00:20:00,SystemResetWarning,0837.5,5.00,000.00,033.9,025.3,000.0,041.2,032.0,34.5,-000.3,0005.52,0009.74,0005.07
2023-07-21 00:21:00,SystemResetWarning,0837.4,4.99,000.00,033.6,025.6,000.0,041.2,031.9,35.0,-000.2,0005.53,0009.75,0005.05
2023-07-21 00:22:00,SystemResetWarning,0837.4,5.01,000.00,033.5,026.1,000.0,041.3,032.0,35.4,0000.0,0005.48,0009.61,0005.01
2023-07-21 00:23:00,SystemResetWarning,0837.4,5.01,000.00,033.6,026.5,000.0,041.3,032.2,35.2,0000.0,0005.38,0009.46,0004.93
2023-07-21 00:24:00,SystemResetWarning,0837.5,5.00,000.00,033.8,026.9,000.0,041.2,032.4,34.8,-000.2,0005.33,0009.50,0004.84
2023-07-21 00:25:00,SystemResetWarning,0837.5,4.99,000.00,033.9,027.3,000.0,041.2,032.4,34.7,0000.0,0005.26,0009.45,0004.78
2023-07-21 00:26:00,SystemResetWarning,0837.5,5.02,000.00,033.9,027.6,000.0,041.3,032.4,34.6,-000.1,0005.23,0009.17,0004.73
2023-07-21 00:27:00,SystemResetWarning,0837.5,5.00,000.00,033.9,027.9,000.0,041.3,032.5,34.6,-000.1,0005.18,0009.01,0004.69
2023-07-21 00:28:00,SystemResetWarning,0837.6,4.99,000.00,033.9,028.1,000.0,041.3,032.5,34.6,0000.1,0005.15,0009.03,0004.67
2023-07-21 00:29:00,SystemResetWarning,0837.6,4.99,000.00,033.9,028.3,000.0,041.4,032.5,34.7,0000.1,0005.13,0009.04,0004.61
2023-07-21 00:30:00,SystemResetWarning,0837.6,5.00,000.00,033.8,028.5,000.0,041.4,032.6,34.8,0000.5,0005.09,0008.46,0004.57
2023-07-21 00:31:00,SystemResetWarning,0837.6,4.99,000.00,033.8,028.5,000.0,041.4,032.6,34.8,0000.3,0005.04,0008.23,0004.53
2023-07-21 00:32:00,SystemResetWarning,0837.6,4.99,000.00,033.8,027.2,000.0,041.3,032.5,34.8,0000.4,0005.03,0008.60,0004.54
2023-07-21 00:33:00,SystemResetWarning,0837.5,5.00,000.00,033.7,026.2,000.0,041.2,032.3,35.0,0000.5,0005.09,0009.26,0004.58
2023-07-21 00:34:00,SystemResetWarning,0837.4,5.02,000.00,033.6,026.0,000.0,041.2,032.0,35.2,-000.1,0005.20,0009.46,0004.66
2023-07-21 00:35:00,SystemResetWarning,0837.4,5.00,000.00,033.6,026.3,000.0,041.2,032.1,35.2,-000.3,0005.26,0009.47,0004.74
2023-07-21 00:36:00,SystemResetWarning,0837.4,5.01,000.00,033.7,026.7,000.0,041.2,032.2,34.9,-000.5,0005.32,0009.51,0004.79
2023-07-21 00:37:00,SystemResetWarning,0837.3,4.97,000.00,033.9,027.0,000.0,041.2,032.4,34.6,-000.6,0005.36,0009.47,0004.84
2023-07-21 00:38:00,SystemResetWarning,0837.2,5.01,000.00,033.9,027.4,000.0,041.2,032.4,34.5,-000.8,0005.40,0009.54,0004.88
2023-07-21 00:39:00,SystemResetWarning,0837.2,5.01,000.00,033.9,027.7,000.0,041.3,032.5,34.7,-000.9,0005.44,0009.56,0004.91
2023-07-21 00:40:00,SystemResetWarning,0837.2,5.00,000.00,033.9,027.9,000.0,041.3,032.5,34.9,-000.8,0005.48,0009.59,0004.95
2023-07-21 00:41:00,SystemResetWarning,0837.2,4.98,000.00,033.9,028.2,000.0,041.4,032.5,35.1,-001.1,0005.52,0009.71,0004.99
2023-07-21 00:42:00,SystemResetWarning,0837.2,5.03,000.00,034.0,028.4,000.0,041.4,032.6,35.2,-000.5,0005.55,0009.79,0005.03
2023-07-21 00:43:00,SystemResetWarning,0837.3,4.99,000.00,034.2,028.2,000.0,041.4,032.8,35.0,-000.1,0005.59,0009.67,0005.06
2023-07-21 00:44:00,SystemResetWarning,0837.4,4.98,000.00,034.5,026.8,000.0,041.3,032.7,34.5,-000.2,0005.66,0009.02,0005.10
2023-07-21 00:45:00,SystemResetWarning,0837.4,4.99,000.00,034.5,026.1,000.0,041.2,032.5,34.3,0000.0,0005.71,0009.08,0005.15
2023-07-21 00:46:00,SystemResetWarning,0837.4,5.01,000.00,034.4,026.1,000.0,041.3,032.1,34.5,0000.3,0005.78,0009.15,0005.19
2023-07-21 00:47:00,SystemResetWarning,0837.4,5.00,000.00,034.2,026.4,000.0,041.4,032.1,34.9,0000.4,0005.80,0009.16,0005.22
2023-07-21 00:48:00,SystemResetWarning,0837.3,4.99,000.00,034.2,026.8,000.0,041.4,032.2,35.2,0000.2,0005.82,0009.17,0005.25
2023-07-21 00:49:00,SystemResetWarning,0837.3,5.03,000.00,034.3,027.2,000.0,041.5,032.4,35.1,0000.3,0005.84,0009.23,0005.26
2023-07-21 00:50:00,SystemResetWarning,0837.4,4.97,000.00,034.5,027.5,000.0,041.6,032.6,34.6,0000.2,0005.83,0009.40,0005.27
2023-07-21 00:51:00,SystemResetWarning,0837.4,5.00,000.00,034.5,027.8,000.0,041.6,032.7,34.4,-000.1,0005.85,0009.57,0005.28
2023-07-21 00:52:00,SystemResetWarning,0837.3,5.01,000.00,034.6,028.1,000.0,041.7,032.7,34.3,-000.0,0005.84,0009.57,0005.28
2023-07-21 00:53:00,SystemResetWarning,0837.3,5.00,000.00,034.5,028.3,000.0,041.7,032.7,34.3,-000.2,0005.85,0009.58,0005.29
2023-07-21 00:54:00,SystemResetWarning,0837.2,4.99,000.00,034.5,028.5,000.0,041.8,032.8,34.3,-000.3,0005.87,0009.65,0005.28
2023-07-21 00:55:00,SystemResetWarning,0837.3,4.99,000.00,034.5,027.9,000.0,041.8,032.7,34.5,-000.1,0005.80,0009.55,0005.24
2023-07-21 00:56:00,SystemResetWarning,0837.3,5.01,000.00,034.5,026.1,000.0,041.6,032.5,34.5,0000.1,0005.73,0009.51,0005.17
2023-07-21 00:57:00,SystemResetWarning,0837.3,5.00,000.00,034.4,025.2,000.0,041.5,032.3,34.7,0000.0,0005.66,0009.87,0005.12
2023-07-21 00:58:00,SystemResetWarning,0837.2,4.99,000.00,034.2,025.2,000.0,041.5,032.0,35.0,-000.0,0005.61,0009.82,0005.10
2023-07-21 00:59:00,SystemResetWarning,0837.2,5.03,000.00,034.0,025.6,000.0,041.5,032.0,35.3,0000.3,0005.64,0010.30,0005.10
